Retour au catalogue

STARLINK-34142

ActifCommunicationsVLEO
NORAD 63957·PAYLOAD·🇺🇸 United States

Lancé May 13, 2025 depuis Cape Canaveral Space Force Station

Loading…

Prochains Passages (prochaines 24 heures)

TLE

FraisSource: CelesTrak SupGP

Époque: Sep 14, 2026, 21:31 UTC

1 63957C 25099F   26257.89701389  .00000935  00000+0  33899-4 0  2571
2 63957  43.0015 187.8859 0001063 263.3750 351.9097 15.27562381    12

Suivez STARLINK-34142 en temps réel avec AllMySat

Download on the App Store